Regional Weather Roundup
Issued by NWS

Home | Current Version | Previous Version | Graphics & Text | Print | Product List | Glossary On
Versions: 1 2 3 4 5 6 7 8 9 10 11 12 13 14 15 16 17 18 19 20 21 22 23 24 25 26 27
000
ASUS45 KBOI 251910
RWRID

IDAHO REGIONAL WEATHER ROUNDUP
NATIONAL WEATHER SERVICE BOISE ID
100 PM MDT SUN SEP 25 2016

NOTE: "FAIR" INDICATES FEW OR NO CLOUDS BELOW 12000 FEET
WITH NO SIGNIFICANT WEATHER AND/OR OBSTRUCTIONS TO VISIBILITY

IDZ012-014-252000-
SOUTHWEST IDAHO


CITY           SKY/WX    TMP DP  RH WIND       PRES   REMARKS
BOISE          SUNNY     67  35  30 W6        30.46F
CALDWELL       SUNNY     66  39  37 VRB3      30.47F
MOUNTAIN HOME  SUNNY     64  38  38 VRB1      30.47F
$$

IDZ016-017-252000-
SOUTHCENTRAL IDAHO


CITY           SKY/WX    TMP DP  RH WIND       PRES   REMARKS
BURLEY         SUNNY     60  38  43 W7        30.48F
JEROME         SUNNY     60  38  43 CALM      30.49F
TWIN FALLS     SUNNY     62  37  39 W12       30.49F
$$

IDZ019>023-252000-
SOUTHEAST IDAHO


CITY           SKY/WX    TMP DP  RH WIND       PRES   REMARKS
IDAHO FALLS    SUNNY     58  36  43 SW9       30.50F
POCATELLO      SUNNY     61  39  44 W8        30.51F
REXBURG        SUNNY     56  38  50 SW7       30.50F
$$

IDZ006-010-011-018-031-032-252000-
CENTRAL IDAHO MOUNTAINS


CITY           SKY/WX    TMP DP  RH WIND       PRES   REMARKS
MCCALL         SUNNY     62  31  31 S3        30.49F
HAILEY         MOSUNNY   59  39  47 SE9       30.52F
STANLEY          N/A     59  29  31 N5        30.55F
SALMON         SUNNY     55  36  47 SW3       30.49F
CHALLIS        SUNNY     60  32  34 N5        30.50F
$$

IDZ002-004-006-007-026-252000-
NORTHERN IDAHO


CITY           SKY/WX    TMP DP  RH WIND       PRES   REMARKS
LEWISTON       SUNNY     69  40  34 N6        30.42F
LOWELL           N/A     65  43  44 N3        30.45F
COEUR D`ALENE  NOT AVBL
MULLAN PASS    CLOUDY    50  35  56 CALM      30.49S
$$




USA.gov is the U.S. government's official web portal to all federal, state and local government web resources and services.